Regional Weather Roundup
Issued by NWS

Home | Current Version | Previous Version | Text Only | Print | Product List | Glossary Off
Versions: 1 2 3 4 5 6 7 8 9 10 11 12 13 14 15 16 17 18 19 20 21 22 23 24 25 26 27 28 29 30 31 32 33 34 35 36 37 38 39 40 41 42 43 44 45 46 47 48 49 50

000
ASUS43 KDTX 201310
RWRMI
MICHIGAN HOURLY REGIONAL WEATHER ROUNDUP
NATIONAL WEATHER SERVICE DETROIT/PONTIAC MI
900 AM EDT MON OCT 20 2014

NOTE: "FAIR" INDICATES FEW OR NO CLOUDS BELOW 12,000 FEET WITH NO
SIGNIFICANT WEATHER AND/OR OBSTRUCTION TO VISIBILITY.

MIZ047>049-052>055-059>063-066>070-074>076-081>083-201400-
SOUTHEAST LOWER MICHIGAN

CITY           SKY/WX    TMP DP  RH WIND       PRES   REMARKS
ADRIAN         CLOUDY    48  43  82 SW12      29.88R
ALMA           CLOUDY    46  45  93 S7        29.81R
ANN ARBOR      CLOUDY    48  43  82 SW9       29.86S
BAD AXE        CLOUDY    46  46 100 SW7       29.82S
DETROIT CITY   CLOUDY    50  43  77 SW10      29.87S
DETROIT        CLOUDY    48  44  86 S8        29.87S
FLINT          PTSUNNY   50  44  80 SW9       29.83S
GROSSE ILE     CLOUDY    48  45  87 S8        29.87R
HILLSDALE      PTSUNNY   48  46  93 S5        29.85S
HOWELL         PTSUNNY   46  44  94 S8        29.83S

CITY           SKY/WX    TMP DP  RH WIND       PRES   REMARKS
JACKSON        PTSUNNY   47  43  86 S9        29.83F
LAMBERTVILLE   CLOUDY    50  43  76 S7        29.88S
LANSING        PTCLDY    47  43  86 S8        29.82S
LAPEER         NOT AVBL
MASON          MOSUNNY   47  44  90 S5        29.82S
MONROE         CLOUDY    48  45  87 SW8       29.86S
MT. CLEMENS    CLOUDY    49  45  86 SW9       29.83S
PONTIAC        CLOUDY    47  43  86 S8        29.84S
PORT HOPE        N/A     47  44  90 SW8       29.79R
PORT HURON     CLOUDY    48  45  87 S6        29.85S
TRI CITIES     CLOUDY    50  45  83 S10       29.81R
YPSILANTI      CLOUDY    51  43  74 SW10      29.87S
$$
MIZ043>046-050>051-056>058-064>065-071>073-077>080-201400-
SOUTHWEST LOWER MICHIGAN

CITY           SKY/WX    TMP DP  RH WIND       PRES   REMARKS
BATTLE CREEK   PTCLDY    48  43  82 S12       29.83S
BENTON HARBOR  LGT RAIN  47  45  93 CALM      29.81S
BIG RAPIDS     FOG       44  44 100 CALM      29.78R VSB<1/4
COLDWATER      MOSUNNY   49  44  84 S3        29.84S
HOLLAND        PTCLDY    48  45  89 SE7       29.81R
GRAND RAPIDS   PTCLDY    48  44  86 SW8       29.81R
KALAMAZOO      PTCLDY    48  44  86 S10       29.84R
MARSHALL       MOCLDY    47  43  88 S7        29.82S
MUSKEGON       PTCLDY    50  47  89 SW6       29.79S
$$
MIZ016>042-201400-
NORTHERN LOWER MICHIGAN

CITY           SKY/WX    TMP DP  RH WIND       PRES   REMARKS
ALPENA         CLOUDY    46  45  96 SW5       29.76R
BEAVER ISLAND  CLOUDY    47  43  85 NW12G18   29.78R
BELLAIRE       CLOUDY    50  47  88 S5        29.76S
CADILLAC       CLOUDY    48  47  97 W5        29.77R
CHARLEVOIX     CLOUDY    52  49  89 NW5       29.79R
FRANKFORT      CLOUDY    50  46  87 CALM      29.77S
GAYLORD        CLOUDY    47  45  93 SW9       29.76R
GRAYLING       CLOUDY    49  48  97 CALM      29.78R
HARBOR SPRINGS CLOUDY    52  48  88 W6        29.75R
HOUGHTON LAKE  CLOUDY    48  46  93 SW5       29.77R
MANISTEE       CLOUDY    43  39  87 CALM      29.79R VSB 3/4
OSCODA         CLOUDY    46  46  98 SW8       29.77S FOG
PELLSTON       CLOUDY    50  47  89 W5        29.75R
TRAVERSE CITY  CLOUDY    50  46  86 CALM      29.76R
$$
MIZ007>008-015-201400-
EASTERN UPPER MICHIGAN

CITY           SKY/WX    TMP DP  RH WIND       PRES   REMARKS
KINROSS        CLOUDY    46  46 100 NW7       29.74R
MACKINAC ISLAN CLOUDY    49  47  93 NW6       29.74R
NEWBERRY       CLOUDY    44  43  97 NW7       29.75R FOG
S. S. MARIE    LGT RAIN  46  44  93 CALM      29.73R FOG
$$
MIZ004>006-011>014-085-201400-
CENTRAL UPPER MICHIGAN

CITY           SKY/WX    TMP DP  RH WIND       PRES   REMARKS
MANISTIQUE     CLOUDY    45  42  91 NW12      29.77R
ESCANABA       CLOUDY    46  41  81 NW7       29.80R
MENOMINEE      CLOUDY    46  41  81 NW6       29.80R
SAWYER-GWINN   CLOUDY    45  41  87 NW8       29.81R
$$
MIZ001>003-009>011-084-201400-
WESTERN UPPER MICHIGAN

CITY           SKY/WX    TMP DP  RH WIND       PRES   REMARKS
IRON MOUNTAIN  CLOUDY    46  42  86 NW9       29.82R
HOUGHTON       CLOUDY    45  41  86 NW9       29.83R
COPPER HARBOR    N/A     47  42  83 NE18      29.82R
IRONWOOD       CLOUDY    46  43  87 NW5       29.85R
$$

ABBREVIATIONS USED IN REMARKS
   TC - TEMPERATURE IN CELSIUS
  WCI - WIND CHILL INDEX
   HX - HEAT INDEX
  VSB - VISIBILITY



USA.gov is the U.S. government's official web portal to all federal, state and local government web resources and services.